Regional Weather Roundup
Issued by NWS

Home | Current Version | Previous Version | Graphics & Text | Print | Product List | Glossary Off
Versions: 1 2 3 4 5 6 7 8 9 10 11 12 13 14 15 16 17 18 19 20 21 22 23 24 25 26 27 28 29 30 31 32 33 34 35 36 37 38 39 40 41 42 43 44 45 46 47 48 49 50

000
ASUS43 KMPX 100401
RWRMN
WEATHER ROUNDUP FOR MINNESOTA
NATIONAL WEATHER SERVICE TWIN CITIES/CHANHASSEN MN
1000 PM CST TUE FEB 09 2016


NOTE: "FAIR" INDICATES FEW OR NO CLOUDS BELOW 12,000 FEET WITH NO
SIGNIFICANT WEATHER AND/OR OBSTRUCTIONS TO VISIBILITY. N/A MEANS
CURRENT SKY AND/OR WEATHER CONDITIONS ARE NOT AVAILABLE.

MNZ060>063-068>070-100500-
   Twin Cities Metro

CITY           SKY/WX    TMP DP  RH WIND       PRES   REMARKS
TWIN CITIES    PTCLDY    10  -3  55 N13       30.15R WCI  -5
ST PAUL        CLEAR      9  -4  55 NW12      30.16R WCI  -6
CRYSTAL        CLEAR     10  -4  53 N9        30.14R WCI  -3
BLAINE         CLEAR     10  -2  56 N10       30.14R WCI  -3
LAKEVILLE      CLEAR      1  -2  85 NW5       30.13R WCI  -8
EDEN PRAIRIE   CLEAR      8  -3  61 NW6       30.13S WCI  -2
SOUTH ST PAUL  CLEAR     11  -4  51 NW8       30.14R WCI  -1
LAKE ELMO      FAIR       9  -4  56 NW6       30.14R WCI  -1
$$
MNZ001>005-007-008-013>017-022>024-027-028-100500-
   Northwest Minnesota

CITY           SKY/WX    TMP DP  RH WIND       PRES   REMARKS
BEMIDJI        CLOUDY    -6 -10  85 NW5       30.14F WCI -17
HALLOCK        CLOUDY     0  -6  78 NE5       30.24S WCI -10
ROSEAU         PTCLDY    -6 -11  77 NW5       30.22R WCI -17
WARROAD        CLOUDY    -6 -11  77 NW6       30.21S WCI -18
THIEF RVR FALL CLOUDY     0  -8  71 N5        30.21R WCI -10
CROOKSTON      CLOUDY     1  -2  85 N6        30.24S WCI -10
FOSSTON          N/A     -9 -15  77 CALM      30.18F
DETROIT LAKES  FLURRIES   0  -2  92 NW5       30.16F WCI -10
MOORHEAD       CLOUDY     3   0  85 NE9       30.21F WCI -11
PARK RAPIDS    CLOUDY    -3  -8  79 NW5       30.13F WCI -13
MAHNOMEN       FAIR      -4  -7  85 NE5       30.17F WCI -14
$$
MNZ006-009>011-018-025>026-100500-
   North Central Minnesota

CITY           SKY/WX    TMP DP  RH WIND       PRES   REMARKS
BAUDETTE       CLOUDY    -5 -12  72 NW7       30.17S WCI -19
FLAG ISLAND    CLOUDY    -8 -13  77 NW7       30.21R WCI -22
INTL FALLS     CLOUDY    -7 -11  83 N7        30.15F WCI -21
WASKISH        CLOUDY    -8  -9  92 NW3       30.16F
LONGVILLE      CLOUDY    -2  -8  78 NW3       30.14S
GRAND RAPIDS   CLOUDY     0  -8  71 NW9       30.11S WCI -16
CRANE LAKE     CLOUDY   -11 -15  84 NW5       30.16S WCI -23
ORR            CLOUDY    -6 -11  77 CALM      30.08F
COOK           CLOUDY    -2  -8  78 CALM      30.10F
WALKER         FAIR      -3  -8  79 SW3       30.15S
$$
MNZ012-019>021-037-100500-
   Northeast Minnesota

CITY           SKY/WX    TMP DP  RH WIND       PRES   REMARKS
DULUTH         PTCLDY     0  -7  72 N16G22    30.06R WCI -20
ELY            CLOUDY    -2  -8  78 N9G16     30.07S WCI -18
HIBBING        CLOUDY    -3  -9  75 N8        30.09S WCI -18
EVELETH        CLEAR      1  -6  71 N8        30.09S WCI -12
DULUTH HARBOR  PTCLDY     7   0  72 N16       30.16S WCI -11
TWO HARBORS    MOCLDY     3  -6  66 N6        30.07S WCI  -8
SILVER BAY     CLEAR      0  -8  71 CALM      30.06S
G MARAIS ARPRT CLEAR     -6 -13  71 NW14G21   29.95S WCI -26
$$
MNZ029>031-032-039>041-046>048-054>057-064-100500-
   West Central Minnesota

CITY           SKY/WX    TMP DP  RH WIND       PRES   REMARKS
FERGUS FALLS   CLOUDY     5   0  78 CALM      30.22F
WHEATON        CLOUDY    12   7  79 N5        30.22F WCI   4
MORRIS         CLOUDY    12   5  73 N8        30.18R WCI   1
ALEXANDRIA     CLOUDY     4  -1  80 N6        30.16R WCI  -7
ELBOW LAKE     CLOUDY     8   2  77 N9        30.19S WCI  -5
WADENA         CLOUDY     0  -4  85 NW3       30.15S
GLENWOOD       CLOUDY     3   0  85 NW7       30.17R WCI  -9
APPLETON       CLOUDY    14   7  73 N9        30.19F WCI   2
BENSON         CLOUDY    12   3  67 N7        30.18S WCI   2
ORTONVILLE     CLOUDY    12   5  73 N7        30.19S WCI   2
MADISON        CLOUDY    16   9  73 N8        30.20S WCI   5
WILLMAR        FAIR       9   5  85 NW7       30.18R WCI  -3
$$
MNZ033>034-036-042>043-049>051-058-059-100500-
   Central Minnesota

CITY           SKY/WX    TMP DP  RH WIND       PRES   REMARKS
ST CLOUD       CLEAR      6  -1  73 NW9       30.16R WCI  -8
SAUK CENTRE    FAIR       4  -2  78 NW7       30.17R WCI  -9
PAYNESVILLE    PTCLDY     6   0  75 NW6       30.17R WCI  -5
AITKIN         CLEAR      3  -8  60 NW3       30.13R
PINE RIVER     CLOUDY     0  -6  78 NW3       30.18R
BRAINERD       CLOUDY     0  -7  72 N8        30.15R WCI -14
STAPLES        CLOUDY    -2  -8  78 NW5       30.16S WCI -12
LONG PRAIRIE   FAIR       3  -2  78 NW9       30.15R WCI -11
LITTLE FALLS   CLOUDY     5  -6  61 CALM      30.17R
LITCHFIELD     CLEAR      9   1  72 NW9       30.16R WCI  -5
BUFFALO        CLEAR      8   1  72 NW5       30.16R WCI  -1
MAPLE LAKE     CLEAR      9   3  76 NW6       30.16R WCI  -1
$$
MNZ037-044-045-052-053-100500-
   East Central Minnesota

CITY           SKY/WX    TMP DP  RH WIND       PRES   REMARKS
PRINCETON      CLEAR      7  -4  61 NW7       30.15R WCI  -5
MORA           CLEAR      7  -2  66 NW8       30.16R WCI  -6
CAMBRIDGE      CLEAR      9  -2  61 NW7       30.13R WCI  -3
RUSH CITY      MOCLDY     6  -4  65 NW8       30.15R WCI  -7
MOOSE LAKE     MOCLDY     3  -6  66 N7        30.11R WCI  -9
HINCKLEY       FAIR       5  -4  66 NW8       30.13R WCI  -8
CLOQUET        CLEAR      1  -8  66 NW9       30.08S WCI -14
MCGREGOR       CLEAR      1  -4  78 NW6       30.13R WCI -10
$$
MNZ071>073-080-081-089-090-097-098-100500-
   Southwest Minnesota

CITY           SKY/WX    TMP DP  RH WIND       PRES   REMARKS
MONTEVIDEO     CLOUDY    12   7  79 N10       30.20S WCI  -1
GRANITE FALLS  CLOUDY    16  10  75 NW8       30.20S WCI   5
CANBY          CLOUDY    19  14  79 NE5       30.19S WCI  12
MARSHALL       CLOUDY    15   9  76 N12       30.18S WCI   2
REDWOOD FALLS  CLOUDY    14   6  70 NW9       30.18S WCI   2
OLIVIA         CLEAR     12   7  79 NW8       30.17R WCI   1
PIPESTONE      CLOUDY    21   7  53 CALM      30.13S
WINDOM         PTCLDY    16  10  79 NW15      30.13S WCI   1
WORTHINGTON    CLOUDY    18   9  68 NW9       30.14F WCI   6
JACKSON        CLOUDY    18   9  68 NW13      30.13S WCI   4
TRACY          CLOUDY    17  11  77 NW10      30.16F WCI   4
SLAYTON        FLURRIES  16  13  88 N7        30.14S WCI   6
$$
MNZ065>067-074>077-082>085-091>093-100500-
   South Central Minnesota

CITY           SKY/WX    TMP DP  RH WIND       PRES   REMARKS
MANKATO        CLEAR      9   1  72 NW10      30.14R WCI  -6
NEW ULM        CLEAR     10   3  72 NW13      30.15S WCI  -5
ST JAMES       CLEAR      9   3  78 NW8       30.16S WCI  -4
FAIRMONT       CLEAR     10   3  72 NW10      30.13S WCI  -3
GLENCOE        CLEAR     10   4  75 NW10      30.15R WCI  -4
FARIBAULT        N/A      7   0  72 NW7       30.12S WCI  -5
OWATONNA       CLEAR      7  -2  66 W8        30.11S WCI  -6
WASECA         CLEAR      7   0  72 W9        30.14R WCI  -7
ALBERT LEA     CLEAR     10   1  67 NW6       30.10S WCI   1
$$
MNZ078>079-086>088-094>096-100500-
   Southeast Minnesota

CITY           SKY/WX    TMP DP  RH WIND       PRES   REMARKS
ROCHESTER      CLOUDY     7  -4  60 NW13      30.06S WCI  -9
RED WING       CLEAR      9  -6  52 N6        30.11S WCI  -1
STANTON        CLOUDY     7  -3  63 NW6       30.12R WCI  -3
DODGE CENTER   CLOUDY     7  -2  66 NW14      30.06S WCI -10
WINONA         CLEAR     12   1  62 NW10      30.11S WCI  -1
AUSTIN         CLEAR      9   0  66 NW9       30.08S WCI  -5
PRESTON        CLOUDY     4  -4  67 NW10      30.06S WCI -11
$$
ABBREVIATIONS USED IN REMARKS
   TC - TEMPERATURES IN CELSIUS
  WCI - WIND CHILL INDEX
   HX - HEAT INDEX
  VSB - VISIBILITY
$$



USA.gov is the U.S. government's official web portal to all federal, state and local government web resources and services.